Location: Peebles
(55.6412°N, 3.1714°W)
Time: 06:29:28
(UTC+01:00)

OBJECT A - Pass Details

Date: 03 July 2022
Orbit: 611 x 632 km, 97.9° (Epoch: 10 August)

Event Time Altitude Azimuth Distance (km) Brightness Sun altitude
Exits shadow 00:07:01 - 200° (SSW) 2,166 ? -10.0°
Reaches altitude 10° 00:07:29 10° 203° (SSW) 1,995 ? -10.0°
Maximum altitude 00:11:20 31° 265° (W) 1,108 ? -10.1°
Drops below altitude 10° 00:15:12 10° 328° (NNW) 1,997 ? -10.3°
Sets 00:17:37 0° 339° (NNW) 2,905 ? -10.4°
